Powrót do katalogu

STARLINK-34814

AktywnyŁącznośćVLEO
NORAD 65100·PAYLOAD·🇺🇸 United States

Wystrzelony Aug 4, 2025 z Cape Canaveral Space Force Station

Loading…

Następne Przeloty (najbliższe 24 godziny)

TLE

ŚwieżeSource: CelesTrak SupGP

Epoka: Sep 15, 2026, 03:49 UTC

1 65100C 25167Y   26258.15951389 -.00063565  00000+0 -18782-2 0  2589
2 65100  53.1577 222.5623 0001326  86.4363 334.1266 15.34419178    15

Śledź STARLINK-34814 w czasie rzeczywistym z AllMySat

Download on the App Store